Location: Little Chesterford
(52.0500°N, 0.1833°E)
Time: 23:24:06
(UTC+00:00)

USA 215 - Pass Details

Date: 26 September 2023
Orbit: 1098 x 1109 km, 123.0° (Epoch: 06 December)

Event Time Altitude Azimuth Distance (km) Brightness Sun altitude
Exits shadow 21:43:26 80° 305° (NW) 1,127 3.2 -32.8°
Drops below altitude 10° 21:49:46 10° 251° (WSW) 2,967 5.7 -33.4°
Sets 21:52:15 0° 251° (WSW) 3,925 6.4 -33.7°
